START_TIME,STEP,MOV.,H8,t_acc.,H43,t_acc.,M25,t_acc.,H9,t_acc.
1979-08-01 06:22:52.410 ,0,0,0.,12.0,0.,12.0,0.,12.0,0.,12.0
1979-08-01 06:23:04.410 ,0,0,0.,12.0,0.,12.0,0.,12.0,0.,12.0
1979-08-01 06:23:16.410 ,0,0,0.,12.0,0.,12.0,0.,12.0,0.,12.0
1979-08-01 06:23:28.410 ,0,0,0.,12.0,0.,12.0,0.,12.0,0.,12.0
1979-08-01 06:23:40.410 ,0,0,0.,12.0,0.,12.0,0.,12.0,0.,12.0
1979-08-01 06:23:52.410 ,0,0,0.,12.0,0.,12.0,0.,12.0,0.,12.0
1979-08-01 06:24:04.410 ,0,0,0.,12.0,0.,12.0,0.,12.0,0.,12.0
1979-08-01 06:24:16.410 ,0,0,0.,12.0,0.,12.0,0.,12.0,0.,12.0
1979-08-01 06:24:28.410 ,0,0,0.,12.0,0.,12.0,0.,12.0,0.,12.0
1979-08-01 06:24:40.410 ,0,0,0.,12.0,0.,12.0,0.,12.0,0.,12.0
1979-08-01 06:24:52.410 ,1,0,0.,12.0,0.,12.0,0.,12.0,0.,12.0
1979-08-01 06:25:04.410 ,1,0,0.,12.0,0.,12.0,0.,12.0,0.,12.0
1979-08-01 06:25:16.410 ,1,0,0.,12.0,0.,12.0,0.,12.0,0.,12.0
1979-08-01 06:25:28.410 ,1,0,0.,12.0,0.,12.0,0.,12.0,0.,12.0
1979-08-01 06:25:40.410 ,2,0,0.,12.0,0.,12.0,0.,12.0,0.,12.0
1979-08-01 06:25:52.410 ,2,0,0.,12.0,0.,12.0,0.,12.0,0.,12.0
1979-08-01 06:26:04.410 ,2,0,0.,12.0,0.,12.0,0.,12.0,0.,12.0
1979-08-01 06:26:16.410 ,2,0,0.,12.0,0.,12.0,0.,12.0,0.,12.0
1979-08-01 06:26:28.410 ,3,0,0.,12.0,0.,12.0,0.,12.0,0.,12.0
1979-08-01 06:26:40.410 ,3,0,0.,12.0,0.,12.0,0.,12.0,0.,12.0
1979-08-01 06:26:52.410 ,3,0,0.,12.0,0.,12.0,0.,12.0,0.,12.0
1979-08-01 06:27:04.410 ,3,0,0.,12.0,0.,12.0,0.,12.0,0.,12.0
1979-08-01 06:27:16.410 ,4,0,0.,12.0,0.,12.0,0.,12.0,0.,12.0
1979-08-01 06:27:28.410 ,4,0,0.,12.0,0.,12.0,0.,12.0,0.,12.0
1979-08-01 06:27:40.410 ,4,0,0.,12.0,0.,12.0,0.,12.0,0.,12.0
1979-08-01 06:27:52.410 ,4,0,0.,12.0,0.,12.0,0.,12.0,0.,12.0
1979-08-01 06:28:04.410 ,5,0,0.,12.0,0.,12.0,0.,12.0,0.,12.0
1979-08-01 06:28:16.410 ,5,0,0.,12.0,0.,12.0,0.,12.0,0.,12.0
1979-08-01 06:28:28.410 ,5,0,0.,12.0,0.,12.0,0.,12.0,0.,12.0
1979-08-01 06:28:40.410 ,5,0,0.,12.0,0.,12.0,0.,12.0,0.,12.0
1979-08-01 06:28:52.410 ,6,0,0.,12.0,0.,12.0,0.,12.0,0.,12.0
1979-08-01 06:29:04.410 ,6,0,0.,12.0,0.,12.0,0.,12.0,0.,12.0
1979-08-01 06:29:16.410 ,0,0,0.,12.0,0.,12.0,0.,12.0,0.,12.0
1979-08-01 06:29:28.410 ,0,0,,0,,0,,0,,0
1979-08-01 06:29:40.410 ,7,0,0.,12.0,0.,12.0,0.,12.0,0.,12.0
1979-08-01 06:29:52.410 ,7,0,0.,12.0,0.,12.0,0.,12.0,0.,12.0
1979-08-01 06:30:04.410 ,7,0,0.,12.0,0.,12.0,0.,12.0,0.,12.0
1979-08-01 06:30:16.410 ,7,0,0.,12.0,0.,12.0,0.,12.0,0.,12.0
1979-08-01 06:31:16.410 ,0,0,0.,12.0,0.,12.0,0.,12.0,0.,12.0
1979-08-01 06:31:28.410 ,0,0,0.,12.0,0.,12.0,0.,12.0,0.,12.0
1979-08-01 06:31:40.410 ,0,0,0.,12.0,0.,12.0,0.,12.0,0.,12.0
1979-08-01 06:31:52.410 ,0,0,0.,12.0,0.,12.0,0.,12.0,0.,12.0
1979-08-01 06:32:04.410 ,5,0,0.,12.0,0.,12.0,0.,12.0,0.,12.0
1979-08-01 06:32:16.410 ,5,0,0.,12.0,0.,12.0,0.,12.0,0.,12.0
1979-08-01 06:32:28.410 ,5,0,0.,12.0,0.,12.0,0.,12.0,0.,12.0
1979-08-01 06:32:40.410 ,5,0,0.,12.0,0.,12.0,0.,12.0,0.,12.0
1979-08-01 06:32:52.410 ,4,0,0.,12.0,0.,12.0,0.,12.0,0.,12.0
1979-08-01 06:33:04.410 ,4,0,0.,12.0,0.,12.0,0.,12.0,0.,12.0
1979-08-01 06:33:16.410 ,4,0,0.,12.0,0.,12.0,0.,12.0,0.,12.0
1979-08-01 06:33:28.410 ,4,0,0.,12.0,0.,12.0,0.,12.0,0.,12.0
1979-08-01 06:33:40.410 ,3,0,0.,12.0,0.,12.0,0.,12.0,0.,12.0
1979-08-01 06:33:52.410 ,3,0,0.,12.0,0.,12.0,0.,12.0,0.,12.0
1979-08-01 06:34:04.410 ,3,0,0.,12.0,0.,12.0,0.,12.0,0.,12.0
1979-08-01 06:34:16.410 ,3,0,0.,12.0,0.,12.0,0.,12.0,0.,12.0
1979-08-01 06:34:28.410 ,2,0,0.,12.0,0.,12.0,0.,12.0,0.,12.0
1979-08-01 06:34:40.410 ,2,0,0.,12.0,0.,12.0,0.,12.0,0.,12.0
1979-08-01 06:34:52.410 ,2,0,0.,12.0,0.,12.0,0.,12.0,0.,12.0
1979-08-01 06:35:04.410 ,2,0,0.,12.0,0.,12.0,0.,12.0,0.,12.0
1979-08-01 06:36:04.410 ,0,0,0.,12.0,0.,12.0,0.,12.0,0.,12.0
1979-08-01 06:36:16.410 ,0,0,0.,12.0,0.,12.0,0.,12.0,0.,12.0
1979-08-01 06:36:28.410 ,0,0,0.,12.0,0.,12.0,0.,12.0,0.,12.0
1979-08-01 06:36:40.410 ,0,0,0.,12.0,0.,12.0,0.,12.0,0.,12.0
1979-08-01 06:36:52.410 ,0,0,0.,12.0,0.,12.0,0.,12.0,0.,12.0
1979-08-01 06:37:04.410 ,0,0,0.,12.0,0.,12.0,0.,12.0,0.,12.0
1979-08-01 06:37:16.410 ,0,0,0.,12.0,0.,12.0,0.,12.0,0.,12.0
1979-08-01 06:37:28.410 ,0,0,0.,12.0,0.,12.0,0.,12.0,0.,12.0
1979-08-01 06:37:40.410 ,0,0,0.,12.0,0.,12.0,0.,12.0,0.,12.0
1979-08-01 06:37:52.410 ,0,0,0.,12.0,0.,12.0,0.,12.0,0.,12.0
1979-08-01 06:38:04.410 ,0,0,0.,12.0,0.,12.0,0.,12.0,0.,12.0
1979-08-01 06:38:16.410 ,0,0,0.,12.0,0.,12.0,0.,12.0,0.,12.0
1979-08-01 06:38:28.410 ,2,0,0.,12.0,0.,12.0,0.,12.0,0.,12.0
1979-08-01 06:38:40.410 ,2,0,0.,12.0,0.,12.0,0.,12.0,0.,12.0
1979-08-01 06:38:52.410 ,2,0,0.,12.0,0.,12.0,0.,12.0,0.,12.0
1979-08-01 06:39:04.410 ,2,0,0.,12.0,0.,12.0,0.,12.0,0.,12.0
1979-08-01 06:39:16.410 ,3,0,0.,12.0,0.,12.0,0.,12.0,0.,12.0
1979-08-01 06:39:28.410 ,3,0,0.,12.0,0.,12.0,0.,12.0,0.,12.0
1979-08-01 06:39:40.410 ,3,0,0.,12.0,0.,12.0,0.,12.0,0.,12.0
1979-08-01 06:39:52.410 ,3,0,0.,12.0,0.,12.0,0.,12.0,0.,12.0
1979-08-01 06:40:04.410 ,4,0,0.,12.0,0.,12.0,0.,12.0,0.,12.0
1979-08-01 06:40:16.410 ,4,0,0.,12.0,0.,12.0,0.,12.0,0.,12.0
1979-08-01 06:40:28.410 ,4,0,0.,12.0,0.,12.0,0.,12.0,0.,12.0
1979-08-01 06:40:40.410 ,4,0,0.,12.0,0.,12.0,0.,12.0,0.,12.0
1979-08-01 06:41:40.410 ,0,0,0.,12.0,0.,12.0,0.,12.0,0.,12.0
1979-08-01 06:41:52.410 ,0,0,0.,12.0,0.,12.0,0.,12.0,0.,12.0
1979-08-01 06:42:04.410 ,0,0,0.,12.0,0.,12.0,0.,12.0,0.,12.0
1979-08-01 06:42:16.410 ,0,0,0.,12.0,0.,12.0,0.,12.0,0.,12.0
1979-08-01 06:42:28.410 ,7,0,0.,12.0,0.,12.0,0.,12.0,0.,12.0
1979-08-01 06:42:40.410 ,7,0,0.,12.0,0.,12.0,0.,12.0,0.,12.0
1979-08-01 06:42:52.410 ,7,0,0.,12.0,0.,12.0,0.,12.0,0.,12.0
1979-08-01 06:43:04.410 ,7,0,0.,12.0,0.,12.0,0.,12.0,0.,12.0
1979-08-01 06:43:16.410 ,3,1,0.,12.0,0.,12.0,0.,12.0,0.,12.0
1979-08-01 06:43:28.410 ,3,1,0.,12.0,0.,12.0,0.,12.0,0.,12.0
1979-08-01 06:43:40.410 ,0,1,0.,12.0,0.,12.0,0.,12.0,0.,12.0
1979-08-01 06:43:52.410 ,0,1,0.,12.0,0.,12.0,0.,12.0,0.,12.0
1979-08-01 06:44:04.410 ,4,1,0.,12.0,0.,12.0,0.,12.0,0.,12.0
1979-08-01 06:44:16.410 ,4,1,0.,12.0,0.,12.0,0.,12.0,0.,12.0
1979-08-01 06:44:28.410 ,7,1,0.,12.0,0.,12.0,0.,12.0,0.,12.0
1979-08-01 06:44:40.410 ,7,1,0.,12.0,0.,12.0,0.,12.0,0.,12.0
1979-08-01 06:44:52.410 ,3,1,0.,12.0,0.,12.0,0.,12.0,0.,12.0
1979-08-01 06:45:04.410 ,3,1,0.,12.0,0.,12.0,0.,12.0,0.,12.0
1979-08-01 06:45:16.410 ,0,1,0.,12.0,0.,12.0,0.,12.0,0.,12.0
1979-08-01 06:45:28.410 ,0,1,0.,12.0,0.,12.0,0.,12.0,0.,12.0
1979-08-01 06:45:40.410 ,4,1,0.,12.0,0.,12.0,0.,12.0,0.,12.0
1979-08-01 06:45:52.410 ,4,1,0.,12.0,0.,12.0,0.,12.0,0.,12.0
1979-08-01 06:46:04.410 ,7,1,0.,12.0,0.,12.0,0.,12.0,0.,12.0
1979-08-01 06:46:16.410 ,7,1,0.,12.0,0.,12.0,0.,12.0,0.,12.0
1979-08-01 06:46:28.410 ,3,1,0.,12.0,0.,12.0,0.,12.0,0.,12.0
1979-08-01 06:46:40.410 ,3,1,0.,12.0,0.,12.0,0.,12.0,0.,12.0
1979-08-01 06:46:52.410 ,0,1,0.,12.0,0.,12.0,0.,12.0,0.,12.0
1979-08-01 06:47:04.410 ,0,1,0.,12.0,0.,12.0,0.,12.0,0.,12.0
1979-08-01 06:47:16.410 ,4,1,0.,12.0,0.,12.0,0.,12.0,0.,12.0
1979-08-01 06:47:28.410 ,4,1,0.,12.0,0.,12.0,0.,12.0,0.,12.0
1979-08-01 06:47:40.410 ,7,1,0.,12.0,0.,12.0,0.,12.0,0.,12.0
1979-08-01 06:47:52.410 ,7,1,0.,12.0,0.,12.0,0.,12.0,0.,12.0
1979-08-01 06:48:04.410 ,3,1,0.,12.0,0.,12.0,0.,12.0,0.,12.0
1979-08-01 06:48:16.410 ,3,1,0.,12.0,0.,12.0,0.,12.0,0.,12.0
1979-08-01 06:48:28.410 ,0,1,0.,12.0,0.,12.0,0.,12.0,0.,12.0
1979-08-01 06:48:40.410 ,0,1,0.,12.0,0.,12.0,0.,12.0,0.,12.0
1979-08-01 06:48:52.410 ,4,1,0.,12.0,0.,12.0,0.,12.0,0.,12.0
1979-08-01 06:49:04.410 ,4,1,0.,12.0,0.,12.0,0.,12.0,0.,12.0
1979-08-01 06:49:16.410 ,7,1,0.,12.0,0.,12.0,0.,12.0,0.,12.0
1979-08-01 06:49:28.410 ,7,1,0.,12.0,0.,12.0,0.,12.0,0.,12.0
1979-08-01 06:49:40.410 ,3,1,0.,12.0,0.,12.0,0.,12.0,0.,12.0
1979-08-01 06:49:52.410 ,3,1,0.,12.0,0.,12.0,0.,12.0,0.,12.0
1979-08-01 06:50:04.410 ,0,1,0.,12.0,0.,12.0,0.,12.0,0.,12.0
1979-08-01 06:50:16.410 ,0,1,0.,12.0,0.,12.0,0.,12.0,0.,12.0
1979-08-01 06:50:28.410 ,4,1,0.,12.0,0.,12.0,0.,12.0,0.,12.0
1979-08-01 06:50:40.410 ,4,1,0.,12.0,0.,12.0,0.,12.0,0.,12.0
1979-08-01 06:50:52.410 ,7,1,0.,12.0,0.,12.0,0.,12.0,0.,12.0
1979-08-01 06:51:04.410 ,7,1,0.,12.0,0.,12.0,0.,12.0,0.,12.0
1979-08-01 06:51:16.410 ,3,1,0.,12.0,0.,12.0,0.,12.0,0.,12.0
1979-08-01 06:51:28.410 ,3,1,0.,12.0,0.,12.0,0.,12.0,0.,12.0
1979-08-01 06:51:40.410 ,0,1,0.,12.0,0.,12.0,0.,12.0,0.,12.0
1979-08-01 06:51:52.410 ,0,1,0.,12.0,0.,12.0,0.,12.0,0.,12.0
1979-08-01 06:52:04.410 ,4,1,0.,12.0,0.,12.0,0.,12.0,0.,12.0
1979-08-01 06:52:16.410 ,4,1,0.,12.0,0.,12.0,0.,12.0,0.,12.0
1979-08-01 06:52:28.410 ,7,1,0.,12.0,0.,12.0,0.,12.0,0.,12.0
1979-08-01 06:52:40.410 ,7,1,0.,12.0,0.,12.0,0.,12.0,0.,12.0
1979-08-01 06:52:52.410 ,3,1,0.,12.0,0.,12.0,0.,12.0,0.,12.0
1979-08-01 06:53:04.410 ,3,1,0.,12.0,0.,12.0,0.,12.0,0.,12.0
1979-08-01 06:53:16.410 ,0,1,0.,12.0,0.,12.0,0.,12.0,0.,12.0
1979-08-01 06:53:28.410 ,0,1,0.,12.0,0.,12.0,0.,12.0,0.,12.0
1979-08-01 06:53:40.410 ,0,0,0.,12.0,0.,12.0,0.,12.0,0.,12.0
1979-08-01 06:53:52.410 ,0,0,0.,12.0,0.,12.0,0.,12.0,0.,12.0
1979-08-01 06:54:04.410 ,0,0,0.,12.0,0.,12.0,0.,12.0,0.,12.0
1979-08-01 06:54:16.410 ,0,0,0.,12.0,0.,12.0,0.,12.0,0.,12.0
1979-08-01 06:54:28.410 ,5,0,0.,12.0,0.,12.0,0.,12.0,0.,12.0
1979-08-01 06:54:40.410 ,5,0,0.,12.0,0.,12.0,0.,12.0,0.,12.0
1979-08-01 06:54:52.410 ,5,0,0.,12.0,0.,12.0,0.,12.0,0.,12.0
1979-08-01 06:55:04.410 ,5,0,0.,12.0,0.,12.0,0.,12.0,0.,12.0
1979-08-01 06:55:16.410 ,4,0,0.,12.0,0.,12.0,0.,12.0,0.,12.0
1979-08-01 06:55:28.410 ,4,0,0.,12.0,0.,12.0,0.,12.0,0.,12.0
1979-08-01 06:55:40.410 ,4,0,0.,12.0,0.,12.0,0.,12.0,0.,12.0
1979-08-01 06:55:52.410 ,4,0,0.,12.0,0.,12.0,0.,12.0,0.,12.0
1979-08-01 06:56:04.410 ,3,0,0.,12.0,0.,12.0,0.,12.0,0.,12.0
1979-08-01 06:56:16.410 ,3,0,0.,12.0,0.,12.0,0.,12.0,0.,12.0
1979-08-01 06:56:28.410 ,3,0,0.,12.0,0.,12.0,0.,12.0,0.,12.0
1979-08-01 06:56:40.410 ,3,0,0.,12.0,0.,12.0,0.,12.0,0.,12.0
1979-08-01 06:56:52.410 ,2,0,0.,12.0,0.,12.0,0.,12.0,0.,12.0
1979-08-01 06:57:04.410 ,2,0,0.,12.0,0.,12.0,0.,12.0,0.,12.0
1979-08-01 06:57:16.410 ,2,0,0.,12.0,0.,12.0,0.,12.0,0.,12.0
1979-08-01 06:57:28.410 ,2,0,0.,12.0,0.,12.0,0.,12.0,0.,12.0
1979-08-01 06:57:40.410 ,1,0,0.,12.0,0.,12.0,0.,12.0,0.,12.0
1979-08-01 06:57:52.410 ,1,0,0.,12.0,0.,12.0,0.,12.0,0.,12.0
1979-08-01 06:58:04.410 ,1,0,0.,12.0,0.,12.0,0.,12.0,0.,12.0
1979-08-01 06:58:16.410 ,1,0,0.,12.0,0.,12.0,0.,12.0,0.,12.0
1979-08-01 06:58:28.410 ,0,0,0.,12.0,0.,12.0,0.,12.0,0.,12.0
1979-08-01 06:58:40.410 ,0,0,0.,12.0,0.,12.0,0.,12.0,0.,12.0
1979-08-01 06:58:52.410 ,0,0,0.,12.0,0.,12.0,0.,12.0,0.,12.0
1979-08-01 06:59:04.410 ,0,0,0.,12.0,0.,12.0,0.,12.0,0.,12.0
1979-08-01 06:59:16.410 ,0,0,0.,12.0,0.,12.0,0.,12.0,0.,12.0
1979-08-01 06:59:28.410 ,0,0,0.,12.0,0.,12.0,0.,12.0,0.,12.0
1979-08-01 06:59:40.410 ,0,0,0.,12.0,0.,12.0,0.,12.0,0.,12.0
1979-08-01 06:59:52.410 ,0,0,0.,12.0,0.,12.0,0.,12.0,0.,12.0
1979-08-01 07:00:04.410 ,1,0,0.,12.0,0.,12.0,0.,12.0,0.,12.0
1979-08-01 07:00:16.410 ,1,0,0.,12.0,0.,12.0,0.,12.0,0.,12.0
1979-08-01 07:00:28.410 ,1,0,0.,12.0,0.,12.0,0.,12.0,0.,12.0
1979-08-01 07:00:40.410 ,1,0,0.,12.0,0.,12.0,0.,12.0,0.,12.0
1979-08-01 07:00:52.410 ,2,0,0.,12.0,0.,12.0,0.,12.0,0.,12.0
1979-08-01 07:01:04.410 ,2,0,0.,12.0,0.,12.0,0.,12.0,0.,12.0
1979-08-01 07:01:16.400 ,2,0,0.,12.0,0.,12.0,0.,12.0,0.,12.0
1979-08-01 07:01:28.410 ,2,0,0.,12.0,0.,12.0,0.,12.0,0.,12.0
1979-08-01 07:01:40.410 ,3,0,0.,12.0,0.,12.0,0.,12.0,0.,12.0
1979-08-01 07:01:52.410 ,3,0,0.,12.0,0.,12.0,0.,12.0,0.,12.0
1979-08-01 07:02:04.400 ,3,0,0.,12.0,0.,12.0,0.,12.0,0.,12.0
1979-08-01 07:02:16.400 ,3,0,0.,12.0,0.,12.0,0.,12.0,0.,12.0
1979-08-01 07:02:28.400 ,4,0,0.,12.0,0.,12.0,0.,12.0,0.,12.0
1979-08-01 07:02:40.410 ,4,0,0.,12.0,0.,12.0,0.,12.0,0.,12.0
1979-08-01 07:02:52.400 ,4,0,0.,12.0,0.,12.0,0.,12.0,0.,12.0
1979-08-01 07:03:04.410 ,4,0,0.,12.0,0.,12.0,0.,12.0,0.,12.0
1979-08-01 07:03:16.400 ,5,0,0.,12.0,0.,12.0,0.,12.0,0.,12.0
1979-08-01 07:03:28.410 ,5,0,0.,12.0,0.,12.0,0.,12.0,0.,12.0
1979-08-01 07:03:40.400 ,5,0,0.,12.0,0.,12.0,0.,12.0,0.,12.0
1979-08-01 07:03:52.410 ,5,0,0.,12.0,0.,12.0,0.,12.0,0.,12.0
1979-08-01 07:04:04.400 ,6,0,0.,12.0,0.,12.0,0.,12.0,0.,12.0
1979-08-01 07:04:16.400 ,6,0,0.,12.0,0.,12.0,0.,12.0,0.,12.0
1979-08-01 07:04:28.400 ,6,0,0.,12.0,0.,12.0,0.,12.0,0.,12.0
1979-08-01 07:04:40.400 ,6,0,0.,12.0,0.,12.0,0.,12.0,0.,12.0
1979-08-01 07:04:52.400 ,7,0,0.,12.0,0.,12.0,0.,12.0,0.,12.0
1979-08-01 07:05:04.400 ,7,0,0.,12.0,0.,12.0,0.,12.0,0.,12.0
1979-08-01 07:05:16.400 ,7,0,0.,12.0,0.,12.0,0.,12.0,0.,12.0
1979-08-01 07:05:28.400 ,7,0,0.,12.0,0.,12.0,0.,12.0,0.,12.0
1979-08-01 07:05:40.400 ,7,0,0.,12.0,0.,12.0,0.,12.0,0.,12.0
1979-08-01 07:05:52.400 ,7,0,0.,12.0,0.,12.0,0.,12.0,0.,12.0
1979-08-01 07:06:04.400 ,7,0,0.,12.0,0.,12.0,0.,12.0,0.,12.0
1979-08-01 07:06:16.400 ,7,0,0.,12.0,0.,12.0,0.,12.0,0.,12.0
1979-08-01 07:06:28.400 ,6,0,0.,12.0,0.,12.0,0.,12.0,0.,12.0
1979-08-01 07:06:40.400 ,6,0,0.,12.0,0.,12.0,0.,12.0,0.,12.0
1979-08-01 07:06:52.400 ,6,0,0.,12.0,0.,12.0,0.,12.0,0.,12.0
1979-08-01 07:07:04.400 ,6,0,0.,12.0,0.,12.0,0.,12.0,0.,12.0
1979-08-01 07:07:16.400 ,5,0,0.,12.0,0.,12.0,0.,12.0,0.,12.0
1979-08-01 07:07:28.400 ,5,0,0.,12.0,0.,12.0,0.,12.0,0.,12.0
1979-08-01 07:07:40.400 ,5,0,0.,12.0,0.,12.0,0.,12.0,0.,12.0
1979-08-01 07:07:52.400 ,5,0,0.,12.0,0.,12.0,0.,12.0,0.,12.0
1979-08-01 07:08:04.400 ,0,0,0.,12.0,0.,12.0,0.,12.0,0.,12.0
1979-08-01 07:08:16.400 ,0,0,1.,12.0,0.,12.0,0.,12.0,1.,12.0
1979-08-01 07:08:28.400 ,0,0,0.,12.0,0.,12.0,0.,12.0,0.,12.0
1979-08-01 07:08:40.410 ,0,0,0.,12.0,0.,12.0,0.,12.0,0.,12.0
1979-08-01 07:08:52.410 ,5,0,0.,12.0,0.,12.0,0.,12.0,0.,12.0
1979-08-01 07:09:04.410 ,5,0,0.,12.0,0.,12.0,0.,12.0,0.,12.0
1979-08-01 07:09:16.410 ,5,0,0.,12.0,0.,12.0,0.,12.0,0.,12.0
1979-08-01 07:09:28.410 ,5,0,0.,12.0,0.,12.0,0.,12.0,0.,12.0
1979-08-01 07:09:40.410 ,2,0,0.,12.0,0.,12.0,0.,12.0,0.,12.0
1979-08-01 07:09:52.410 ,2,0,0.,12.0,0.,12.0,0.,12.0,0.,12.0
1979-08-01 07:10:04.410 ,2,0,0.,12.0,0.,12.0,0.,12.0,0.,12.0
1979-08-01 07:10:16.410 ,2,0,0.,12.0,0.,12.0,0.,12.0,0.,12.0
1979-08-01 07:10:28.410 ,0,0,0.,12.0,0.,12.0,0.,12.0,0.,12.0
1979-08-01 07:10:40.410 ,0,0,0.,12.0,0.,12.0,0.,12.0,0.,12.0
1979-08-01 07:10:52.410 ,0,0,0.,12.0,0.,12.0,1.,12.0,0.,12.0
1979-08-01 07:11:04.410 ,0,0,1.,12.0,1.,12.0,0.,12.0,0.,12.0
1979-08-01 07:11:16.410 ,0,0,0.,12.0,0.,12.0,0.,12.0,0.,12.0
1979-08-01 07:11:28.410 ,0,0,0.,12.0,0.,12.0,0.,12.0,0.,12.0
1979-08-01 07:11:40.410 ,0,0,0.,12.0,0.,12.0,0.,12.0,0.,12.0
1979-08-01 07:11:52.410 ,0,0,0.,12.0,0.,12.0,0.,12.0,0.,12.0
1979-08-01 07:12:52.410 ,0,0,0.,12.0,0.,12.0,0.,12.0,0.,12.0
1979-08-01 07:13:04.410 ,0,0,0.,12.0,0.,12.0,0.,12.0,0.,12.0
1979-08-01 07:13:16.410 ,0,0,0.,12.0,0.,12.0,0.,12.0,0.,12.0
1979-08-01 07:13:28.410 ,0,0,0.,12.0,0.,12.0,0.,12.0,0.,12.0
1979-08-01 07:14:28.410 ,0,0,0.,12.0,0.,12.0,0.,12.0,0.,12.0
1979-08-01 07:14:40.410 ,0,0,0.,12.0,0.,12.0,0.,12.0,0.,12.0
1979-08-01 07:14:52.410 ,0,0,0.,12.0,0.,12.0,0.,12.0,0.,12.0
1979-08-01 07:15:04.410 ,0,0,0.,12.0,0.,12.0,0.,12.0,0.,12.0
1979-08-01 07:15:16.410 ,4,0,0.,12.0,0.,12.0,0.,12.0,0.,12.0
1979-08-01 07:15:28.410 ,4,0,0.,12.0,0.,12.0,0.,12.0,0.,12.0
1979-08-01 07:15:40.410 ,4,0,0.,12.0,0.,12.0,0.,12.0,0.,12.0
1979-08-01 07:15:52.410 ,4,0,0.,12.0,0.,12.0,0.,12.0,0.,12.0
1979-08-01 07:16:04.410 ,5,0,0.,12.0,0.,12.0,0.,12.0,0.,12.0
1979-08-01 07:16:16.410 ,5,0,0.,12.0,0.,12.0,0.,12.0,0.,12.0
1979-08-01 07:16:28.410 ,5,0,0.,12.0,0.,12.0,0.,12.0,0.,12.0
1979-08-01 07:16:40.410 ,5,0,0.,12.0,0.,12.0,0.,12.0,0.,12.0
1979-08-01 07:17:40.400 ,0,0,0.,12.0,0.,12.0,0.,12.0,0.,12.0
1979-08-01 07:17:52.400 ,0,0,0.,12.0,0.,12.0,0.,12.0,0.,12.0
1979-08-01 07:18:04.400 ,0,0,0.,12.0,0.,12.0,0.,12.0,0.,12.0
1979-08-01 07:18:16.400 ,0,0,0.,12.0,0.,12.0,0.,12.0,0.,12.0
1979-08-01 07:18:28.400 ,7,0,0.,12.0,0.,12.0,0.,12.0,0.,12.0
1979-08-01 07:18:40.400 ,7,0,0.,12.0,0.,12.0,0.,12.0,0.,12.0
1979-08-01 07:18:52.400 ,7,0,0.,12.0,0.,12.0,0.,12.0,0.,12.0
1979-08-01 07:19:04.400 ,7,0,0.,12.0,0.,12.0,0.,12.0,0.,12.0
1979-08-01 07:19:16.400 ,6,0,0.,12.0,0.,12.0,0.,12.0,0.,12.0
1979-08-01 07:19:28.400 ,6,0,0.,12.0,0.,12.0,0.,12.0,0.,12.0
1979-08-01 07:19:40.400 ,6,0,0.,12.0,0.,12.0,0.,12.0,0.,12.0
1979-08-01 07:19:52.400 ,6,0,0.,12.0,0.,12.0,0.,12.0,0.,12.0
1979-08-01 07:20:04.400 ,5,0,0.,12.0,0.,12.0,0.,12.0,0.,12.0
1979-08-01 07:20:16.400 ,5,0,0.,12.0,0.,12.0,0.,12.0,0.,12.0
1979-08-01 07:20:28.400 ,5,0,0.,12.0,0.,12.0,0.,12.0,0.,12.0
1979-08-01 07:20:40.400 ,5,0,0.,12.0,0.,12.0,0.,12.0,0.,12.0
1979-08-01 07:20:52.400 ,4,0,0.,12.0,0.,12.0,0.,12.0,0.,12.0
1979-08-01 07:21:04.400 ,4,0,0.,12.0,0.,12.0,0.,12.0,0.,12.0
1979-08-01 07:21:16.400 ,4,0,0.,12.0,0.,12.0,0.,12.0,0.,12.0
1979-08-01 07:21:28.400 ,4,0,0.,12.0,0.,12.0,0.,12.0,0.,12.0
1979-08-01 07:21:40.400 ,3,0,0.,12.0,0.,12.0,0.,12.0,0.,12.0
1979-08-01 07:21:52.400 ,3,0,0.,12.0,0.,12.0,0.,12.0,0.,12.0
1979-08-01 07:22:04.400 ,3,0,0.,12.0,0.,12.0,0.,12.0,0.,12.0
1979-08-01 07:22:16.400 ,3,0,0.,12.0,0.,12.0,0.,12.0,0.,12.0
1979-08-01 07:22:28.400 ,2,0,0.,12.0,0.,12.0,0.,12.0,0.,12.0
1979-08-01 07:22:40.400 ,2,0,0.,12.0,0.,12.0,0.,12.0,0.,12.0
1979-08-01 07:22:52.400 ,2,0,0.,12.0,0.,12.0,0.,12.0,0.,12.0
1979-08-01 07:23:04.400 ,2,0,0.,12.0,1.,12.0,1.,12.0,2.,12.0
1979-08-01 07:23:16.400 ,1,0,0.,12.0,0.,12.0,0.,12.0,0.,12.0
1979-08-01 07:23:28.400 ,1,0,0.,12.0,0.,12.0,0.,12.0,0.,12.0
1979-08-01 07:23:40.400 ,1,0,0.,12.0,0.,12.0,0.,12.0,0.,12.0
1979-08-01 07:23:52.400 ,1,0,0.,12.0,0.,12.0,0.,12.0,0.,12.0
1979-08-01 07:24:04.400 ,0,0,0.,12.0,0.,12.0,0.,12.0,0.,12.0
1979-08-01 07:24:16.400 ,0,0,0.,12.0,0.,12.0,0.,12.0,0.,12.0
1979-08-01 07:24:28.400 ,0,0,0.,12.0,0.,12.0,0.,12.0,0.,12.0
1979-08-01 07:24:40.400 ,0,0,0.,12.0,0.,12.0,0.,12.0,0.,12.0
1979-08-01 07:24:52.400 ,0,0,0.,12.0,0.,12.0,0.,12.0,0.,12.0
1979-08-01 07:25:04.400 ,0,0,0.,12.0,0.,12.0,0.,12.0,0.,12.0
1979-08-01 07:25:16.400 ,0,0,0.,12.0,0.,12.0,0.,12.0,0.,12.0
1979-08-01 07:25:28.400 ,0,0,0.,12.0,0.,12.0,0.,12.0,0.,12.0
1979-08-01 07:25:40.400 ,1,0,0.,12.0,0.,12.0,0.,12.0,0.,12.0
1979-08-01 07:25:52.400 ,1,0,0.,12.0,0.,12.0,0.,12.0,0.,12.0
1979-08-01 07:26:04.400 ,1,0,0.,12.0,0.,12.0,0.,12.0,0.,12.0
1979-08-01 07:26:16.400 ,1,0,0.,12.0,0.,12.0,0.,12.0,0.,12.0
1979-08-01 07:26:28.400 ,2,0,0.,12.0,0.,12.0,0.,12.0,0.,12.0
1979-08-01 07:26:40.400 ,2,0,0.,12.0,0.,12.0,0.,12.0,0.,12.0
1979-08-01 07:26:52.400 ,2,0,0.,12.0,0.,12.0,0.,12.0,0.,12.0
1979-08-01 07:27:04.400 ,2,0,0.,12.0,0.,12.0,0.,12.0,0.,12.0
1979-08-01 07:27:16.400 ,3,0,0.,12.0,0.,12.0,0.,12.0,0.,12.0
1979-08-01 07:27:28.400 ,3,0,0.,12.0,0.,12.0,0.,12.0,0.,12.0
1979-08-01 07:27:40.400 ,5,0,0.,12.0,0.,12.0,0.,12.0,0.,12.0
1979-08-01 07:27:52.400 ,5,0,1.,12.0,0.,12.0,0.,12.0,3.,12.0
1979-08-01 07:28:04.400 ,4,0,0.,12.0,0.,12.0,0.,12.0,0.,12.0
1979-08-01 07:28:16.400 ,4,0,0.,12.0,0.,12.0,0.,12.0,0.,12.0
1979-08-01 07:28:28.400 ,4,0,0.,12.0,0.,12.0,0.,12.0,0.,12.0
1979-08-01 07:28:40.400 ,4,0,0.,12.0,0.,12.0,0.,12.0,0.,12.0
1979-08-01 07:28:52.400 ,5,0,0.,12.0,0.,12.0,0.,12.0,0.,12.0
1979-08-01 07:29:04.400 ,5,0,0.,12.0,0.,12.0,0.,12.0,0.,12.0
1979-08-01 07:29:16.400 ,5,0,0.,12.0,0.,12.0,0.,12.0,0.,12.0
1979-08-01 07:29:28.400 ,5,0,0.,12.0,0.,12.0,0.,12.0,0.,12.0
1979-08-01 07:29:40.400 ,6,0,0.,12.0,0.,12.0,0.,12.0,0.,12.0
1979-08-01 07:29:52.400 ,6,0,0.,12.0,0.,12.0,0.,12.0,0.,12.0
1979-08-01 07:30:04.400 ,6,0,0.,12.0,0.,12.0,0.,12.0,0.,12.0
1979-08-01 07:30:16.400 ,6,0,0.,12.0,0.,12.0,0.,12.0,0.,12.0
1979-08-01 07:30:28.400 ,7,0,0.,12.0,0.,12.0,0.,12.0,0.,12.0
1979-08-01 07:30:40.400 ,7,0,0.,12.0,0.,12.0,0.,12.0,0.,12.0
1979-08-01 07:30:52.400 ,7,0,0.,12.0,0.,12.0,0.,12.0,0.,12.0
1979-08-01 07:31:04.400 ,7,0,2.,12.0,0.,12.0,0.,12.0,0.,12.0
1979-08-01 07:31:16.400 ,3,1,0.,12.0,0.,12.0,0.,12.0,0.,12.0
1979-08-01 07:31:28.400 ,3,1,0.,12.0,0.,12.0,0.,12.0,0.,12.0
1979-08-01 07:31:40.400 ,0,1,0.,12.0,0.,12.0,0.,12.0,0.,12.0
1979-08-01 07:31:52.400 ,0,1,0.,12.0,0.,12.0,0.,12.0,0.,12.0
1979-08-01 07:32:04.400 ,4,1,0.,12.0,0.,12.0,0.,12.0,0.,12.0
1979-08-01 07:32:16.400 ,4,1,0.,12.0,0.,12.0,0.,12.0,0.,12.0
1979-08-01 07:32:28.400 ,7,1,0.,12.0,0.,12.0,0.,12.0,0.,12.0
1979-08-01 07:32:40.400 ,7,1,0.,12.0,0.,12.0,0.,12.0,0.,12.0
1979-08-01 07:32:52.400 ,6,0,0.,12.0,0.,12.0,0.,12.0,0.,12.0
1979-08-01 07:33:04.400 ,6,0,0.,12.0,0.,12.0,0.,12.0,0.,12.0
1979-08-01 07:33:16.400 ,6,0,1.,12.0,0.,12.0,0.,12.0,2.,12.0
1979-08-01 07:33:28.400 ,6,0,0.,12.0,1.,12.0,0.,12.0,0.,12.0
1979-08-01 07:33:40.400 ,2,1,0.,12.0,0.,12.0,0.,12.0,0.,12.0
1979-08-01 07:33:52.400 ,2,1,0.,12.0,0.,12.0,0.,12.0,0.,12.0
1979-08-01 07:34:04.400 ,7,1,0.,12.0,0.,12.0,0.,12.0,0.,12.0
1979-08-01 07:34:16.400 ,7,1,0.,12.0,0.,12.0,0.,12.0,0.,12.0
1979-08-01 07:34:28.400 ,3,1,0.,12.0,0.,12.0,0.,12.0,0.,12.0
1979-08-01 07:34:40.400 ,3,1,0.,12.0,0.,12.0,0.,12.0,0.,12.0
1979-08-01 07:34:52.400 ,0,1,0.,12.0,0.,12.0,0.,12.0,0.,12.0
1979-08-01 07:35:04.400 ,0,1,0.,12.0,0.,12.0,1.,12.0,0.,12.0
1979-08-01 07:35:16.400 ,4,1,0.,12.0,0.,12.0,0.,12.0,0.,12.0
1979-08-01 07:35:28.400 ,4,1,0.,12.0,0.,12.0,0.,12.0,0.,12.0
1979-08-01 07:35:40.400 ,7,1,0.,12.0,0.,12.0,0.,12.0,0.,12.0
1979-08-01 07:35:52.400 ,7,1,0.,12.0,0.,12.0,0.,12.0,0.,12.0
1979-08-01 07:36:04.400 ,3,1,0.,12.0,0.,12.0,0.,12.0,0.,12.0
1979-08-01 07:36:16.400 ,3,1,0.,12.0,0.,12.0,0.,12.0,0.,12.0
1979-08-01 07:36:28.400 ,0,1,0.,12.0,0.,12.0,0.,12.0,0.,12.0
1979-08-01 07:36:40.400 ,0,1,0.,12.0,0.,12.0,0.,12.0,0.,12.0
1979-08-01 07:36:52.400 ,4,1,0.,12.0,0.,12.0,0.,12.0,0.,12.0
1979-08-01 07:37:04.400 ,4,1,0.,12.0,0.,12.0,0.,12.0,0.,12.0
1979-08-01 07:37:16.400 ,7,1,0.,12.0,0.,12.0,0.,12.0,0.,12.0
1979-08-01 07:37:28.400 ,7,1,0.,12.0,0.,12.0,0.,12.0,0.,12.0
1979-08-01 07:37:44.600 ,3,1,0.,12.0,0.,12.0,0.,12.0,0.,12.0
1979-08-01 07:37:56.600 ,3,1,0.,12.0,0.,12.0,0.,12.0,0.,12.0
1979-08-01 07:38:04.400 ,0,1,0.,12.0,0.,12.0,0.,12.0,0.,12.0
1979-08-01 07:38:16.400 ,0,1,0.,12.0,0.,12.0,0.,12.0,0.,12.0
1979-08-01 07:38:28.400 ,4,1,0.,12.0,0.,12.0,0.,12.0,0.,12.0
1979-08-01 07:38:40.400 ,4,1,0.,12.0,0.,12.0,0.,12.0,0.,12.0
1979-08-01 07:38:52.400 ,6,0,0.,12.0,0.,12.0,0.,12.0,0.,12.0
1979-08-01 07:39:04.400 ,6,0,0.,12.0,1.,12.0,2.,12.0,0.,12.0
1979-08-01 07:39:16.400 ,0,0,0.,12.0,0.,12.0,0.,12.0,0.,12.0
1979-08-01 07:39:28.400 ,0,0,0.,12.0,0.,12.0,0.,12.0,0.,12.0
1979-08-01 07:39:40.400 ,0,1,0.,12.0,0.,12.0,0.,12.0,0.,12.0
1979-08-01 07:39:52.400 ,0,1,0.,12.0,0.,12.0,0.,12.0,0.,12.0
1979-08-01 07:40:04.400 ,4,1,0.,12.0,0.,12.0,0.,12.0,0.,12.0
1979-08-01 07:40:16.400 ,4,1,0.,12.0,0.,12.0,0.,12.0,0.,12.0
1979-08-01 07:40:28.400 ,7,1,0.,12.0,0.,12.0,0.,12.0,0.,12.0
1979-08-01 07:40:40.400 ,7,1,0.,12.0,0.,12.0,0.,12.0,0.,12.0
1979-08-01 07:41:40.400 ,0,0,0.,12.0,0.,12.0,0.,12.0,0.,12.0
1979-08-01 07:41:52.400 ,0,0,0.,12.0,0.,12.0,0.,12.0,0.,12.0
1979-08-01 07:42:04.400 ,0,0,0.,12.0,0.,12.0,0.,12.0,0.,12.0
1979-08-01 07:42:16.400 ,0,0,0.,12.0,0.,12.0,0.,12.0,0.,12.0
1979-08-01 07:42:28.400 ,5,0,0.,12.0,0.,12.0,0.,12.0,0.,12.0
1979-08-01 07:42:40.400 ,5,0,0.,12.0,0.,12.0,0.,12.0,0.,12.0
1979-08-01 07:42:52.400 ,5,0,0.,12.0,0.,12.0,0.,12.0,0.,12.0
1979-08-01 07:43:04.400 ,5,0,0.,12.0,0.,12.0,0.,12.0,0.,12.0
1979-08-01 07:44:04.400 ,0,0,0.,12.0,0.,12.0,0.,12.0,0.,12.0
1979-08-01 07:44:16.400 ,0,0,0.,12.0,0.,12.0,0.,12.0,0.,12.0
1979-08-01 07:44:28.400 ,0,0,0.,12.0,0.,12.0,0.,12.0,0.,12.0
1979-08-01 07:44:40.400 ,0,0,0.,12.0,0.,12.0,0.,12.0,0.,12.0
1979-08-01 07:44:52.400 ,2,0,0.,12.0,0.,12.0,0.,12.0,0.,12.0
1979-08-01 07:45:04.400 ,2,0,0.,12.0,0.,12.0,0.,12.0,0.,12.0
1979-08-01 07:45:16.400 ,2,0,0.,12.0,0.,12.0,0.,12.0,0.,12.0
1979-08-01 07:45:28.400 ,2,0,0.,12.0,0.,12.0,0.,12.0,0.,12.0
1979-08-01 07:45:40.400 ,1,0,0.,12.0,0.,12.0,0.,12.0,0.,12.0
1979-08-01 07:45:52.400 ,1,0,0.,12.0,0.,12.0,0.,12.0,0.,12.0
1979-08-01 07:46:04.400 ,1,0,0.,12.0,0.,12.0,0.,12.0,0.,12.0
1979-08-01 07:46:16.400 ,1,0,0.,12.0,0.,12.0,0.,12.0,0.,12.0